Location: Москва
(55.7504°N, 37.6175°E)
Time: 03:48:51
(UTC+03:00)

Envisat - Pass Details

Date: 27 September 2021
Orbit: 764 x 766 km, 98.2° (Epoch: 17 October)

Event Time Altitude Azimuth Distance (km) Brightness Sun altitude
Rises 05:38:56 0° 17° (NNE) 3,247 6.6 -7.2°
Reaches altitude 10° 05:41:17 10° 20° (NNE) 2,316 5.9 -6.9°
Maximum altitude 05:46:21 62° 102° (ESE) 860 3.6 -6.2°
Drops below altitude 10° 05:51:23 10° 183° (S) 2,298 5.4 -5.5°
Sets 05:53:42 0° 187° (S) 3,220 6.1 -5.2°
